Regional Weather Roundup
Issued by NWS Memphis, TN

Home | Current Version | Previous Version | Text Only | Print | Product List | Glossary On
Versions: 1 2 3 4 5 6 7 8 9 10 11 12 13 14 15 16 17 18 19 20 21 22 23 24 25 26 27 28 29 30 31 32 33 34 35 36 37 38 39 40 41 42 43 44 45 46 47 48 49 50
000
ASUS44 KMEG 291210
RWRMEG
MEMPHIS CWA HOURLY WEATHER ROUNDUP
NATIONAL WEATHER SERVICE MEMPHIS TN
700 AM CDT FRI AUG 29 2014

...WEST TENNESSEE...

CITY           SKY/WX    TMP DP  RH WIND       PRES   REMARKS
MEMPHIS INTL   PTCLDY    74  66  76 S3        29.97R
6HR MIN TEMP:  74; 6HR MAX TEMP:  83;

NWS MEMPHIS      N/A     72 N/A N/A MISG        N/A
JACKSON        CLEAR     69  67  93 SE6       29.99R
6HR MIN TEMP:  68; 6HR MAX TEMP:  75;

LEXINGTON      CLOUDY    66  66 100 CALM      30.00R VSB 0
SAVANNAH       PTCLDY    68  68 100 CALM      30.01R
DYERSBURG      CLEAR     72  63  73 CALM      29.98S
6HR MIN TEMP:  70; 6HR MAX TEMP:  73;

UNION CITY     CLEAR     66  66 100 CALM      29.97R
PARIS          CLEAR     68  66  94 CALM      30.00R
HUNTINGDON     CLEAR     68  67  96 CALM      30.00R


...EASTERN ARKANSAS...

CITY           SKY/WX    TMP DP  RH WIND       PRES   REMARKS
JONESBORO      CLEAR     69  68  96 CALM      29.96R
6HR MIN TEMP:  69; 6HR MAX TEMP:  76;

WEST MEMPHIS   CLEAR     71  70  96 SE3       29.96R
6HR MIN TEMP:  70; 6HR MAX TEMP:  75;

BATESVILLE     CLEAR     68  64  88 SE3       29.96R
6HR MIN TEMP:  66; 6HR MAX TEMP:  73;

NEWPORT        CLEAR     71  68  90 E10       29.97R
6HR MIN TEMP:  70; 6HR MAX TEMP:  77;

WALNUT RIDGE   CLEAR     70 -18   3 CALM      29.96R
6HR MIN TEMP:  70; 6HR MAX TEMP:  75;

BLYTHEVILLE    CLEAR     73  72  96 S3        29.97R FOG
6HR MIN TEMP:  72; 6HR MAX TEMP:  76;

SEARCY         CLEAR     68  67  96 CALM      29.97R
6HR MIN TEMP:  67; 6HR MAX TEMP:  70;

STUTTGART      CLEAR     73  68  83 S6        29.97R
6HR MIN TEMP:  72; 6HR MAX TEMP:  77;

PINE BLUFF     MOCLDY    71  69  93 CALM      29.96R
6HR MIN TEMP:  69; 6HR MAX TEMP:  73;

MONTICELLO     CLOUDY    74  70  87 CALM      29.97R
6HR MIN TEMP:  72; 6HR MAX TEMP:  77;



...NORTH MISSISSIPPI...

CITY           SKY/WX    TMP DP  RH WIND       PRES   REMARKS
TUPELO         PTCLDY    71  65  81 S3        30.00R
6HR MIN TEMP:  69; 6HR MAX TEMP:  73;

OLIVE BRANCH   PTCLDY    70  70 100 CALM      29.98R
CLARKSDALE     CLEAR     68  68 100 CALM      29.98R
CORINTH        PTCLDY    70  68  94 CALM      30.00R FOG
GRENADA        PTCLDY    66  64  94 CALM      29.99R
GREENWOOD      PTCLDY    69  67  93 CALM      29.98R
6HR MIN TEMP:  68; 6HR MAX TEMP:  71;

COLUMBUS       MOCLDY    68  64  86 SE5       30.01R
6HR MIN TEMP:  66; 6HR MAX TEMP:  69;

STARKVILLE     FAIR      68  64  88 CALM      30.00R
GOLDEN TRIANGL CLEAR     72  64  78 SE7       30.01R


...SOUTHEAST MISSOURI...

CITY           SKY/WX    TMP DP  RH WIND       PRES   REMARKS
WEST PLAINS    CLEAR     67  63  87 CALM      30.00R
6HR MIN TEMP:  64; 6HR MAX TEMP:  74;

POPLAR BLUFF   MOCLDY    72  68  87 CALM      29.96R FOG
6HR MIN TEMP:  71; 6HR MAX TEMP:  73;

CAPE GIRARDEAU FOG       68  67  96 CALM      29.97S VSB 3/4
6HR MIN TEMP:  67; 6HR MAX TEMP:  71;



...NORTHWEST ALABAMA...

CITY           SKY/WX    TMP DP  RH WIND       PRES   REMARKS
MUSCLE SHOALS  CLEAR     67  64  90 CALM      30.03R
6HR MIN TEMP:  65; 6HR MAX TEMP:  71;



...MIDDLE TENNESSEE...

CITY           SKY/WX    TMP DP  RH WIND       PRES   REMARKS
NASHVILLE      PTCLDY    72  69  90 S3        30.04R
6HR MIN TEMP:  71; 6HR MAX TEMP:  75;

CLARKSVILLE    CLEAR     70  69  97 E3        30.01R FOG
6HR MIN TEMP:  69; 6HR MAX TEMP:  75;

DICKSON        CLEAR     72  66  83 SE3       30.02R
COLUMBIA         N/A     66  66 100 CALM      30.02R
LEWISBURG      CLEAR     62  61  97 CALM      30.04R


...WESTERN KENTUCKY...

CITY           SKY/WX    TMP DP  RH WIND       PRES   REMARKS
PADUCAH        CLEAR     72  70  93 SE6       29.97R FOG
6HR MIN TEMP:  71; 6HR MAX TEMP:  74;

FORT CAMPBELL  CLEAR     71  71 100 E5        30.01R
6HR MIN TEMP:  71; 6HR MAX TEMP:  74;



...CENTRAL ARKANSAS...

CITY           SKY/WX    TMP DP  RH WIND       PRES   REMARKS
LITTLE ROCK    MOCLDY    73  68  84 CALM      29.96R
6HR MIN TEMP:  72; 6HR MAX TEMP:  76;



SKY/WX REPORTED AS FAIR MEANS FEW OR NO CLOUDS BELOW
12 THOUSAND FEET.



USA.gov is the U.S. government's official web portal to all federal, state and local government web resources and services.